Time,TemperatureF,DewpointF,PressureIn,WindDirection,WindDirectionDegrees,WindSpeedMPH,WindSpeedGustMPH,Humidity,HourlyPrecipIn,Conditions,Clouds,dailyrainin,SoftwareType,DateUTC
2013-09-30 00:11:00,65.0,24.0,-100.00,SSW,205,11.0,30.0,21,0.00,,,-99.99,,2013-09-30 00:11:00,
2013-09-30 00:22:00,65.0,24.0,-100.00,SSW,205,11.0,30.0,21,0.00,,,-99.99,,2013-09-30 00:22:00,
2013-09-30 00:42:00,64.0,24.0,-100.00,SW,215,10.0,30.0,22,0.00,,,-99.99,,2013-09-30 00:42:00,
2013-09-30 01:11:00,63.0,24.0,-100.00,SW,227,11.0,27.0,22,0.00,,,-99.99,,2013-09-30 01:11:00,
2013-09-30 01:22:00,63.0,25.0,-100.00,WSW,246,8.0,27.0,23,0.00,,,-99.99,,2013-09-30 01:22:00,
2013-09-30 01:31:00,63.0,25.0,-100.00,WSW,246,8.0,27.0,23,0.00,,,-99.99,,2013-09-30 01:31:00,
2013-09-30 02:12:00,61.0,26.0,-100.00,WSW,243,7.0,24.0,26,0.00,,,-99.99,,2013-09-30 02:12:00,
2013-09-30 02:22:00,61.0,26.0,-100.00,WSW,243,7.0,24.0,26,0.00,,,-99.99,,2013-09-30 02:22:00,
2013-09-30 02:32:00,61.0,26.0,-100.00,WSW,243,7.0,24.0,26,0.00,,,-99.99,,2013-09-30 02:32:00,
2013-09-30 02:52:00,60.0,28.0,-100.00,SW,233,5.0,15.0,29,0.00,,,-99.99,,2013-09-30 02:52:00,
2013-09-30 03:12:00,60.0,28.0,-100.00,SW,226,11.0,35.0,29,0.00,,,-99.99,,2013-09-30 03:12:00,
2013-09-30 03:22:00,60.0,28.0,-100.00,SW,226,11.0,35.0,29,0.00,,,-99.99,,2013-09-30 03:22:00,
2013-09-30 03:44:00,59.0,28.0,-100.00,SW,226,9.0,28.0,30,0.00,,,-99.99,,2013-09-30 03:44:00,
2013-09-30 03:55:00,59.0,26.0,-100.00,WSW,237,6.0,24.0,28,0.00,,,-99.99,,2013-09-30 03:55:00,
2013-09-30 04:02:00,59.0,25.0,-100.00,SW,226,6.0,16.0,27,0.00,,,-99.99,,2013-09-30 04:02:00,
2013-09-30 04:04:00,59.0,26.0,-100.00,WSW,237,6.0,24.0,28,0.00,,,-99.99,,2013-09-30 04:04:00,
2013-09-30 04:44:00,59.0,25.0,-100.00,SW,226,6.0,16.0,27,0.00,,,-99.99,,2013-09-30 04:44:00,
2013-09-30 04:53:00,59.0,25.0,-100.00,SW,226,6.0,16.0,27,0.00,,,-99.99,,2013-09-30 04:53:00,
2013-09-30 10:22:00,58.0,28.0,-100.00,SW,234,4.0,15.0,32,0.00,,,-99.99,,2013-09-30 10:22:00,
2013-09-30 10:42:00,57.0,27.0,-100.00,SW,236,4.0,13.0,32,0.00,,,-99.99,,2013-09-30 10:42:00,
2013-09-30 11:12:00,57.0,27.0,-100.00,SSW,195,3.0,10.0,32,0.00,,,-99.99,,2013-09-30 11:12:00,
2013-09-30 11:22:00,57.0,27.0,-100.00,SW,232,5.0,14.0,32,0.00,,,-99.99,,2013-09-30 11:22:00,
2013-09-30 11:32:00,57.0,27.0,-100.00,SW,232,5.0,14.0,32,0.00,,,-99.99,,2013-09-30 11:32:00,
2013-09-30 11:43:00,57.0,27.0,-100.00,SW,232,5.0,14.0,32,0.00,,,-99.99,,2013-09-30 11:43:00,
2013-09-30 11:52:00,58.0,28.0,-100.00,West,261,6.0,20.0,31,0.00,,,-99.99,,2013-09-30 11:52:00,
2013-09-30 12:02:00,58.0,28.0,-100.00,West,261,6.0,20.0,31,0.00,,,-99.99,,2013-09-30 12:02:00,
2013-09-30 12:22:00,58.0,29.0,-100.00,SW,233,5.0,17.0,33,0.00,,,-99.99,,2013-09-30 12:22:00,
2013-09-30 12:42:00,58.0,29.0,-100.00,SW,223,10.0,28.0,33,0.00,,,-99.99,,2013-09-30 12:42:00,
2013-09-30 12:52:00,58.0,29.0,-100.00,SW,229,11.0,31.0,33,0.00,,,-99.99,,2013-09-30 12:52:00,
2013-09-30 13:01:00,58.0,29.0,-100.00,SW,229,11.0,31.0,33,0.00,,,-99.99,,2013-09-30 13:01:00,
2013-09-30 13:11:00,58.0,29.0,-100.00,SW,229,11.0,31.0,33,0.00,,,-99.99,,2013-09-30 13:11:00,
2013-09-30 15:22:00,58.0,19.0,-100.00,SSW,193,6.0,16.0,22,0.00,,,-99.99,,2013-09-30 15:22:00,
2013-09-30 15:45:00,58.0,20.0,-100.00,NE,44,5.0,14.0,23,0.00,,,-99.99,,2013-09-30 15:45:00,
2013-09-30 16:24:00,58.0,21.0,-100.00,NNW,330,4.0,12.0,24,0.00,,,-99.99,,2013-09-30 16:24:00,
2013-09-30 16:34:00,58.0,21.0,-100.00,NNW,330,4.0,12.0,24,0.00,,,-99.99,,2013-09-30 16:34:00,
2013-09-30 17:12:00,60.0,16.0,-100.00,South,184,7.0,25.0,18,0.00,,,-99.99,,2013-09-30 17:12:00,
2013-09-30 17:22:00,60.0,16.0,-100.00,South,184,7.0,25.0,18,0.00,,,-99.99,,2013-09-30 17:22:00,
2013-09-30 17:43:00,60.0,19.0,-100.00,South,176,9.0,19.0,20,0.00,,,-99.99,,2013-09-30 17:43:00,
2013-09-30 17:53:00,60.0,23.0,-100.00,South,188,11.0,22.0,24,0.00,,,-99.99,,2013-09-30 17:53:00,
2013-09-30 18:12:00,61.0,27.0,-100.00,SW,223,7.0,25.0,27,0.00,,,-99.99,,2013-09-30 18:12:00,
2013-09-30 18:22:00,61.0,27.0,-100.00,SW,223,7.0,25.0,27,0.00,,,-99.99,,2013-09-30 18:22:00,
2013-09-30 18:42:00,62.0,29.0,-100.00,SSW,200,8.0,21.0,28,0.00,,,-99.99,,2013-09-30 18:42:00,
2013-09-30 18:53:00,62.0,31.0,-100.00,SSE,162,9.0,20.0,31,0.00,,,-99.99,,2013-09-30 18:53:00,
2013-09-30 19:01:00,62.0,31.0,-100.00,SSE,162,9.0,20.0,31,0.00,,,-99.99,,2013-09-30 19:01:00,
2013-09-30 19:22:00,63.0,32.0,-100.00,South,184,7.0,20.0,31,0.00,,,-99.99,,2013-09-30 19:22:00,
2013-09-30 19:42:00,64.0,32.0,-100.00,SSW,196,7.0,18.0,30,0.00,,,-99.99,,2013-09-30 19:42:00,
2013-09-30 19:53:00,64.0,33.0,-100.00,SSW,193,5.0,16.0,31,0.00,,,-99.99,,2013-09-30 19:53:00,
2013-09-30 20:02:00,64.0,33.0,-100.00,SSW,193,5.0,16.0,31,0.00,,,-99.99,,2013-09-30 20:02:00,
2013-09-30 20:12:00,64.0,33.0,-100.00,SSW,193,5.0,16.0,31,0.00,,,-99.99,,2013-09-30 20:12:00,
2013-09-30 20:23:00,64.0,33.0,-100.00,South,185,7.0,22.0,31,0.00,,,-99.99,,2013-09-30 20:23:00,
2013-09-30 20:43:00,64.0,34.0,-100.00,South,179,10.0,23.0,32,0.00,,,-99.99,,2013-09-30 20:43:00,
2013-09-30 21:11:00,65.0,34.0,-100.00,SSW,206,9.0,24.0,31,0.00,,,-99.99,,2013-09-30 21:11:00,
2013-09-30 21:22:00,65.0,34.0,-100.00,SSW,209,9.0,19.0,31,0.00,,,-99.99,,2013-09-30 21:22:00,
2013-09-30 21:44:00,66.0,34.0,-100.00,South,191,9.0,23.0,30,0.00,,,-99.99,,2013-09-30 21:44:00,
2013-09-30 22:13:00,66.0,32.0,-100.00,South,182,11.0,24.0,28,0.00,,,-99.99,,2013-09-30 22:13:00,
2013-09-30 22:23:00,66.0,33.0,-100.00,SSW,209,9.0,27.0,29,0.00,,,-99.99,,2013-09-30 22:23:00,
2013-09-30 22:43:00,67.0,33.0,-100.00,SW,219,5.0,20.0,28,0.00,,,-99.99,,2013-09-30 22:43:00,
2013-09-30 23:12:00,67.0,33.0,-100.00,NNW,344,5.0,18.0,28,0.00,,,-99.99,,2013-09-30 23:12:00,
2013-09-30 23:23:00,67.0,33.0,-100.00,NNW,344,5.0,18.0,28,0.00,,,-99.99,,2013-09-30 23:23:00,
2013-09-30 23:43:00,66.0,33.0,-100.00,South,169,4.0,12.0,29,0.00,,,-99.99,,2013-09-30 23:43:00,
2013-09-30 23:53:00,65.0,33.0,-100.00,WSW,241,7.0,17.0,30,0.00,,,-99.99,,2013-09-30 23:53:00,